Regional Weather Roundup
Issued by NWS

Home | Current Version | Previous Version | Graphics & Text | Print | Product List | Glossary Off
Versions: 1 2 3 4 5 6 7 8 9 10 11 12 13 14 15 16 17 18 19 20 21 22 23 24 25 26 27 28 29 30 31 32 33 34 35 36 37 38 39 40 41 42 43 44 45 46 47 48 49 50

000
ASUS43 KDMX 301406
RWRIA

WEATHER ROUNDUP FOR IOWA
NATIONAL WEATHER SERVICE DES MOINES IA
900 AM CDT THU MAR 30 2017

NOTE: "FAIR" INDICATES FEW OR NO CLOUDS BELOW 12,000 FEET WITH NO
SIGNIFICANT WEATHER AND/OR OBSTRUCTIONS TO VISIBILITY.

* - THESE STATIONS ARE NOT NWS STATIONS...THUS NOT UNDER NWS
QUALITY CONTROL.  THEY ALSO DO NOT REPORT WEATHER SUCH
AS PRECIPITATION OR FOG.

IAZ001>003-012>014-020>022-031>034-043>046-301500-
   NORTHWEST IOWA

CITY           SKY/WX    TMP DP  RH WIND       PRES   REMARKS
CHEROKEE *     CLOUDY    37  37 100 NE9G17    29.81S WCI  31
DENISON *      CLOUDY    39  39 100 NE16G24   29.74F WCI  30
SHELDON *      CLOUDY    37  36  93 NE17G26   29.82R WCI  28
SIOUX CITY     CLOUDY    39  37  92 NE16G23   29.80F WCI  30
SPENCER        CLOUDY    37  36  96 NE16      29.82S FOG     WCI  28
$$

IAZ055>058-069>071-079>083-090>094-301500-
   SOUTHWEST IOWA

CITY           SKY/WX    TMP DP  RH WIND       PRES   REMARKS
ATLANTIC *     CLOUDY    41  41 100 NE17      29.70R FOG
AUDUBON *      DRIZZLE   39  37  93 NE13G20   29.71F WCI  32
HARLAN  *      CLOUDY    41  41 100 NE15G24   29.74S
LAMONI         FOG       44  43  96 NE15      29.61S VSB 1/2
$$

IAZ047>049-059>061-072>074-084-301500-
   CENTRAL IOWA

CITY           SKY/WX    TMP DP  RH WIND       PRES   REMARKS
AMES           CLOUDY    41  41 100 NE12G18   29.72F FOG
GRINNELL*      CLOUDY    41  40  95 NE16      29.68F
MARSHALLTOWN   CLOUDY    41  40  96 NE15      29.70R FOG
NEWTON *       CLOUDY    41  41 100 NE15      29.67F
PERRY *        CLOUDY    41  40  97 NE14      29.72S FOG
$$

IAZ004>006-015-016-023>025-035-036-301500-
   NORTH CENTRAL IOWA

CITY           SKY/WX    TMP DP  RH WIND       PRES   REMARKS
FORT DODGE *   CLOUDY    37  34  87 NE12      29.77F WCI  30
MASON CITY     CLOUDY    38  36  92 NE17      29.80F FOG     WCI  28
FOREST CITY *  CLOUDY    36  36 100 NE12G17   29.79F WCI  27
$$

IAZ007>011-017>019-026>030-037>042-050>054-066-301500-
   NORTHEAST IOWA

CITY           SKY/WX    TMP DP  RH WIND       PRES   REMARKS
CEDAR RAPIDS   CLOUDY    42  42 100 E13G29    29.67F
CHARLES CITY * CLOUDY    39  39 100 NE18      29.79S WCI  30
CLINTON *      LGT RAIN  43  42  97 E14       29.71F
DUBUQUE        LGT RAIN  39  39 100 E18G28    29.72F WCI  30
WATERLOO       CLOUDY    40  37  89 NE17      29.73F WCI  31
$$

IAZ064-065-067-068-078-301500-
   EAST CENTRAL IOWA

CITY           SKY/WX    TMP DP  RH WIND       PRES   REMARKS
DAVENPORT      LGT RAIN  44  42  93 E17G23    29.69S FOG
IOWA CITY      CLOUDY    45  41  86 NE15G24   29.67F
QUAD CITIES    LGT RAIN  45  42  89 NE16      29.65F FOG
$$

IAZ062-063-075>077-085>089-095>099-301500-
   SOUTHEAST IOWA

CITY           SKY/WX    TMP DP  RH WIND       PRES   REMARKS
BURLINGTON     CLOUDY    47  47 100 NE7       29.59F
FAIRFIELD *    CLOUDY    45  45 100 NE13      29.62R
CENTERVILLE *  CLOUDY    45  45 100 NE9       29.61S FOG
WASHINGTON *   CLOUDY    45  45 100 NE14G20   29.64F
$$

ABBREVIATIONS USED IN REMARKS
   TC - TEMPERATURES IN CELSIUS
  WCI - WIND CHILL INDEX
   HX - HEAT INDEX
  VSB - VISIBILITY
$$




USA.gov is the U.S. government's official web portal to all federal, state and local government web resources and services.